CZ-4B R/B (29507 NORAD) Tracking and Keplerian Element Data

This shows tracking and keplerian element data for the satellite.

Feedback or suggestion? Click here.




ElementValue
Catalog29507
NameCZ-4B R/B
Epoch Orbit63995
Epoch Day196.12940715
Epoch Year2018
RAAN208.9405
Inclination97.7893
Eccentricity0.0047495
Argument of Perigee3.3151
Mean Anonmoly356.8378
Mean Motion15.00359566
Decay Rate4.91E-06
L11 29507U 06046C 18196.12940715 .00000491 00000-0 43256-4 0 9991
L22 29507 97.7893 208.9405 0047495 3.3151 356.8378 15.00359566639950

Live tracking and technical data element details for CZ-4B R/B (NORAD 29507). CZ-4B R/B can be tracked NOW for your location showing map with azimuth and elevation plus other details from your city location.

Track the satellite on the map from your city or location and see movement details for azimuth, elevation, latitude, longitude, range, height, and movement on the map or in text.







IsCatalogInMostPopularTable: catalog: 29507, numindb: 25
Update: records affected: 1



GetName: 29507 CZ-4B R/B

Hit Count: updated at: Sun, 15 Jul 2018 23:14:41 GMT